Regina,

11:01 AM CST on April 25, 2017 (GMT -0600)
Regina

Weather History for CYQR - January, 2013

Change the Weather History Date:

Sunday, January 6, 2013

  Actual Average Record
Temperature  
Mean Temperature 20 °F -  
Max Temperature 30 °F 13 °F 35 °F (2003)
Min Temperature 10 °F -7 °F -32 °F (1999)
Degree Days  
Heating Degree Days 45    
Moisture  
Dew Point 18 °F    
Average Humidity 91    
Maximum Humidity 100    
Minimum Humidity 83    
Precipitation  
Precipitation 0.00 in 0.02 in - ()
Sea Level Pressure  
Sea Level Pressure 29.86 in    
Wind  
Wind Speed 11 mph ()    
Max Wind Speed 24 mph    
Max Gust Speed -    
Visibility 6.6 miles    
Events Fog , Snow    
Averages and records for this station are not official NWS values.
T = Trace of Precipitation, MM = Missing Value Source: Averaged Metar Reports

Daily Weather History Graph

Daily Weather History Graph

Search for Another Location

Airport or City:

Trip Planner

Search our weather history database for the weather conditions in past years. The results will help you decide how hot, cold, wet, or windy it might be!

Date:

Astronomy

Jan. 06, 2013 Rise Set
Actual Time 8:58 AM CST 5:11 PM CST
Civil Twilight 8:19 AM CST 5:50 PM CST
Nautical Twilight 7:38 AM CST 6:31 PM CST
Astronomical Twilight 6:58 AM CST 7:10 PM CST
Moon 3:01 AM CST (1/6) 12:52 PM CST (1/6)
Length of Visible Light 9h 30m
Length of Day
8h 13m
Waning Crescent, 33% of the Moon is Illuminated
Jan 6
Waning Crescent
Jan 11
New
Jan 18
First Quarter
Jan 26
Full
Feb 3
Last Quarter

Hourly Weather History & Observations

Time (CST) Temp. Windchill Dew Point Humidity Pressure Visibility Wind Dir Wind Speed Gust Speed Precip Events Conditions
12:00 AM 17 °F - 15 °F 88% 30.21 in 0 mi West 2.3 mph - -   Overcast
12:00 AM 15.8 °F - 15.8 °F 100% 30.21 in 1.0 mi West 2.3 mph - N/A   Overcast
12:16 AM 15.8 °F 10.2 °F - N/A% - 0.8 mi WSW 3.5 mph - N/A   Overcast
1:00 AM 15.8 °F 6.1 °F 14.0 °F 93% 30.21 in 0.5 mi SW 6.9 mph - N/A Fog Light Freezing Fog
2:00 AM 15.8 °F 6.1 °F 14.0 °F 93% 30.17 in 0.4 mi SSE 6.9 mph - N/A Fog Light Freezing Fog
3:00 AM 15.8 °F 3.4 °F 14.0 °F 93% 30.16 in 0.4 mi South 10.4 mph - N/A Fog Light Freezing Fog
4:00 AM 14.0 °F 1.2 °F 12.2 °F 93% 30.13 in 0.4 mi SSE 10.4 mph - N/A Fog Light Freezing Fog
5:06 AM 12.2 °F -3.1 °F - N/A% - 0.8 mi SSE 13.8 mph - N/A   Overcast
5:12 AM 12.2 °F -4.3 °F - N/A% - 2.0 mi SSE 16.1 mph - N/A   Overcast
5:34 AM 10.4 °F -6.0 °F - N/A% - 3.0 mi SE 15.0 mph - N/A   Overcast
6:00 AM 11 °F - 9 °F 88% 30.05 in 1 mi SE 13.8 mph - -   Overcast
7:00 AM 10.4 °F -6.0 °F 8.6 °F 92% 30.02 in 5.0 mi SE 15.0 mph - N/A   Overcast
7:43 AM 12.2 °F -4.3 °F - N/A% - 5.0 mi SE 16.1 mph - N/A   Overcast
7:52 AM 12.2 °F -4.3 °F - N/A% - 5.0 mi SE 16.1 mph - N/A   Overcast
8:00 AM 12.2 °F -3.7 °F 10.4 °F 92% 29.98 in 5.0 mi SE 15.0 mph - N/A Snow Light Snow
8:10 AM 12.2 °F -4.3 °F - N/A% - 2.5 mi SE 16.1 mph - N/A Snow Light Snow
8:16 AM 12.2 °F -4.3 °F - N/A% - 1.5 mi SE 16.1 mph - N/A Snow Light Snow
8:31 AM 12.2 °F -5.3 °F - N/A% - 1.0 mi SE 18.4 mph - N/A Snow Light Snow
8:43 AM 12.2 °F -4.3 °F - N/A% - 0.8 mi SE 16.1 mph - N/A Snow Light Snow
8:55 AM 12.2 °F -4.3 °F - N/A% - 2.0 mi SE 16.1 mph - N/A Snow Light Snow
9:07 AM 12.2 °F -4.3 °F - N/A% - 3.0 mi SE 16.1 mph - N/A Snow Light Snow
9:30 AM 12.2 °F -3.7 °F - N/A% - 4.0 mi SSE 15.0 mph - N/A Snow Light Snow
10:00 AM 14.0 °F -2.0 °F 10.4 °F 86% 29.88 in 4.0 mi SE 16.1 mph - N/A Snow Light Snow
10:18 AM 14.0 °F -2.0 °F - N/A% - 9.0 mi SSE 16.1 mph - N/A Snow Low Drifting Snow
11:00 AM 14.0 °F -2.0 °F 12.2 °F 93% 29.85 in 12.0 mi SSE 16.1 mph - N/A Snow Low Drifting Snow
12:00 PM 16 °F - 14 °F 89% 29.79 in 9 mi SSE 12.7 mph - -  
12:00 PM 15.8 °F 2.1 °F 14.0 °F 93% 29.80 in 15.0 mi SSE 12.7 mph - N/A Snow Low Drifting Snow
2:00 PM 21.2 °F 10.9 °F 19.4 °F 93% 29.70 in 15.0 mi SSE 9.2 mph - N/A   Partly Cloudy
3:00 PM 28.4 °F 14.1 °F 26.6 °F 93% 29.64 in 15.0 mi WSW 24.2 mph - N/A   Partly Cloudy
4:00 PM 28.4 °F 14.4 °F 24.8 °F 86% 29.62 in 15.0 mi WSW 23.0 mph - N/A   Partly Cloudy
5:00 PM 28.4 °F 15.4 °F 24.8 °F 86% 29.62 in 15.0 mi West 19.6 mph - N/A   Partly Cloudy
6:00 PM 28 °F - 25 °F 83% 29.64 in 9 mi West 20.7 mph - -  
6:00 PM 26.6 °F 12.7 °F 24.8 °F 93% 29.64 in 15.0 mi West 20.7 mph - N/A   Partly Cloudy
7:00 PM 28.4 °F 18.5 °F 24.8 °F 86% 29.66 in 15.0 mi WNW 11.5 mph - N/A   Overcast
8:00 PM 26.6 °F 14.3 °F 23.0 °F 86% 29.65 in 15.0 mi West 16.1 mph - N/A   Overcast
8:34 PM 26.6 °F 14.3 °F - N/A% - 15.0 mi West 16.1 mph - N/A   Overcast
9:00 PM 30.2 °F 16.8 °F 26.6 °F 86% 29.65 in 15.0 mi West 23.0 mph - N/A   Overcast
10:00 PM 30.2 °F 17.1 °F 28.4 °F 93% 29.65 in 15.0 mi West 21.9 mph - N/A   Overcast
10:13 PM 30.2 °F 17.1 °F - N/A% - 10.0 mi West 21.9 mph - N/A Snow Light Snow
10:36 PM 30.2 °F 17.4 °F - N/A% - 4.0 mi West 20.7 mph - N/A Snow Light Snow
11:00 PM 30.2 °F 17.1 °F 30.2 °F 100% 29.65 in 2.0 mi West 21.9 mph - N/A Snow Light Snow